| Date | Time | Temp. (oF) | Dew Point (oF) | Rel. Hum. (%) | Press. (in.) | Wind Dir. | Wind Speed (mph) | Hourly Rainfall (in.) |
|
|---|---|---|---|---|---|---|---|---|---|
| 1 | 11/25 | 00:00 | 39 | 39 | 100 | 29.71 | WNW | 7 | 0.00 |
| 2 | 11/24 | 23:00 | 40 | 40 | 100 | 29.68 | NW | 8 | 0.01 |
| 3 | 11/24 | 22:00 | 41 | 41 | 100 | 29.69 | W | 4 | 0.04 |
| 4 | 11/24 | 21:00 | 40 | 40 | 100 | 29.65 | E | 10 | 0.22 |
| 5 | 11/24 | 20:00 | 38 | 37 | 100 | 29.72 | N | 9 | 0.35 |
| 6 | 11/24 | 19:00 | 36 | 36 | 100 | 29.76 | W | 5 | 0.31 |
| 7 | 11/24 | 18:00 | 38 | 37 | 100 | 29.75 | WSW | 6 | 0.31 |
| 8 | 11/24 | 17:00 | 38 | 37 | 100 | 29.75 | NNE | 4 | 0.22 |
| 9 | 11/24 | 16:00 | 38 | 37 | 98 | 29.79 | N | 6 | 0.17 |
| 10 | 11/24 | 15:00 | 37 | 35 | 96 | 29.81 | ENE | 5 | 0.02 |
| 11 | 11/24 | 14:00 | 37 | 35 | 94 | 29.87 | NE | 3 | 0.04 |
| 12 | 11/24 | 13:00 | 37 | 34 | 91 | 29.91 | N | 3 | 0.00 |
| 13 | 11/24 | 12:00 | 36 | 33 | 91 | 29.93 | ENE | 4 | 0.00 |
| 14 | 11/24 | 11:00 | 34 | 31 | 90 | 29.97 | ENE | 5 | 0.00 |
| 15 | 11/24 | 10:00 | 33 | 28 | 83 | 30.03 | ENE | 3 | 0.00 |
| 16 | 11/24 | 09:00 | 31 | 25 | 81 | 30.08 | NE | 3 | 0.00 |
| 17 | 11/24 | 08:00 | 29 | 23 | 79 | 30.11 | NE | 2 | 0.00 |
| 18 | 11/24 | 07:00 | 27 | 20 | 77 | 30.14 | ENE | 3 | 0.00 |
| 19 | 11/24 | 06:00 | 27 | 20 | 75 | 30.17 | NE | 1 | 0.00 |
| 20 | 11/24 | 05:00 | 26 | 18 | 73 | 30.19 | E | 2 | 0.00 |
| 21 | 11/24 | 04:00 | 25 | 17 | 73 | 30.23 | ENE | 2 | 0.00 |
| 22 | 11/24 | 03:00 | 25 | 16 | 69 | 30.25 | SSE | 2 | 0.00 |
| 23 | 11/24 | 02:00 | 26 | 15 | 65 | 30.27 | SSE | 2 | 0.00 |
| 24 | 11/24 | 01:00 | 25 | 14 | 63 | 30.27 | E | 3 | 0.00 |